Dewpoint
30 31 31 30 30 30 31 31 29 30 30 30 30 29 29 28 27 28 28 26 25 24 24 24 25 27 29 27 29 28 27 28 26 24 24 24 23 22 24 25 28 29 30
31 30 31 31 30 30 30 30 30 29 30 30 29 28 28 28 28 31 26 25 24 23 23 24 25 27 29 26 27 26 29 25 23 21 20 20 21 23 23 25 26 25 27
30 31 31 30 29 29 29 29 29 28 28 27 28 28 28 28 31 27 25 25 23 22 23 25 26 30 26 25 29 25 24 22 21 20 19 21 21 23 23 23 25 26 26
29 29 30 29 28 28 29 27 28 27 27 26 28 29 26 28 27 26 25 24 23 23 25 25 25 25 24 29 28 26 22 21 21 20 19 20 21 21 22 23 21 25 25
28 28 29 28 27 28 28 27 27 26 26 26 28 26 25 26 24 24 24 23 23 22 23 24 23 23 24 26 28 25 23 21 20 19 20 19 19 20 19 20 22 23 25
27 26 28 27 25 25 25 25 25 25 23 25 26 24 24 22 23 23 22 21 22 21 22 21 21 22 23 27 25 23 22 20 20 21 19 18 19 20 21 22 22 23 22
26 25 27 25 23 22 22 23 22 21 21 21 23 22 23 23 23 23 22 21 20 20 20 19 20 22 22 24 21 22 23 23 22 22 21 20 21 21 23 23 23 24 24
25 24 24 23 21 20 22 20 20 20 19 18 20 21 21 21 23 22 21 17 17 19 18 18 18 19 23 19 20 21 20 20 22 24 22 23 23 23 25 26 25 25 25
24 23 22 21 19 20 19 18 19 18 19 19 19 20 19 18 21 21 18 14 15 16 17 17 18 19 19 21 24 20 19 19 23 22 21 21 21 22 22 25 21 21 20
23 22 21 20 19 18 18 18 18 18 18 19 18 19 19 17 19 19 17 14 14 16 16 15 17 16 19 24 19 20 17 19 17 18 18 19 20 20 22 24 23 20 20
23 22 21 18 17 18 18 18 18 18 18 18 18 18 16 16 16 18 17 13 15 16 14 14 17 18 22 18 17 18 19 18 16 16 16 16 17 19 20 23 24 23 21
22 21 20 18 16 16 18 18 18 18 17 18 18 17 16 16 16 15 16 17 16 15 15 18 16 19 16 15 15 16 16 15 15 14 14 14 15 17 18 22 23 24 25
21 20 20 19 19 18 19 19 19 18 17 17 17 15 15 17 17 16 17 18 18 16 17 16 16 15 14 15 14 14 14 14 14 13 12 14 15 17 18 20 21 22 24
20 18 22 15 21 20 22 21 15 9 9 13 10 5 5 12 14 15 15 19 18 17 16 14 14 16 12 12 12 12 12 13 13 13 13 14 14 14 16 18 18 20 21
20 16 14 12 9 14 18 14 16 10 11 7 7 8 6 5 10 14 15 16 15 16 12 11 10 10 9 10 9 9 9 11 11 12 12 12 11 12 13 16 17 19 19
21 19 13 12 6 6 10 12 19 18 18 19 19 14 14 13 14 13 16 15 13 14 10 9 8 8 8 9 9 8 8 9 11 11 12 10 10 10 12 13 15 17 17
20 19 15 13 8 5 3 4 4 11 18 16 18 15 16 14 13 12 15 14 12 11 3 5 6 8 8 9 9 8 7 9 11 10 9 9 9 9 10 11 13 15 16
11 14 10 7 5 3 2 2 0 2 2 4 14 13 15 14 12 12 13 12 5 5 3 4 6 8 9 8 9 7 7 8 9 8 7 7 8 8 8 10 11 13 15
11 5 4 3 5 4 3 3 1 1 1 1 2 9 6 13 12 13 12 -2 -3 -2 0 1 2 6 8 8 9 6 5 7 8 6 6 6 6 7 7 9 10 14 16
7 7 8 9 7 5 4 3 1 0 1 -0 -1 -0 1 0 -4 -4 -6 -8 -7 -6 -7 -5 -2 4 7 7 8 6 5 7 5 5 5 5 6 6 6 8 9 13 14
12 10 10 11 12 10 4 3 2 2 3 -1 -1 -2 2 -2 -5 -4 -6 -6 -3 2 -6 -4 -7 -0 5 8 7 5 4 7 3 5 5 5 4 4 6 8 10 13 14
19 17 13 10 11 7 8 6 6 7 2 0 -1 1 3 -3 -4 -4 -6 -6 -1 2 -4 0 -4 -3 5 7 6 4 6 3 2 4 4 4 4 4 5 6 10 11 12
13 11 12 12 12 8 7 8 8 4 2 -0 -1 1 -2 -4 -5 -4 -3 -6 2 -4 -3 -6 -9 -3 7 5 5 6 6 3 4 4 3 3 4 4 5 7 8 9 9
14 10 12 9 8 8 6 6 5 6 6 1 -2 -3 -3 -4 -6 -1 -6 -7 -7 -2 -6 -7 -6 -4 -1 -0 2 7 6 4 2 2 3 3 4 4 6 6 7 7 9
7 6 6 8 9 8 6 7 6 3 0 -2 -3 -4 -1 -3 -1 -6 -9 -8 -5 -13 -11 -10 -9 -5 -4 -3 1 4 2 0 -1 -1 2 2 4 4 5 5 5 7 8
11 11 10 9 9 8 7 5 4 1 -0 3 3 2 5 3 1 -5 -4 -10 -13 -15 -13 -9 -6 -7 -6 -2 -0 4 -2 -3 -3 -1 0 2 4 4 3 3 4 6 7
Lifted_Index
12 12 12 12 13 13 14 14 15 15 16 16 16 16 16 17 17 16 16 16 16 17 17 16 16 16 15 15 15 14 15 14 13 12 14 15 15 14 15 15 15 15 16
12 12 12 12 13 13 14 14 15 15 16 16 16 16 16 16 16 16 16 16 16 17 17 16 16 16 16 16 15 15 15 15 14 13 14 15 15 15 15 15 15 15 16
12 12 12 12 13 13 14 14 15 15 16 16 16 16 16 16 16 16 16 16 17 17 17 17 16 16 16 16 16 16 17 16 16 14 14 15 16 16 15 14 14 15 15
11 11 11 12 13 13 14 14 15 16 16 16 16 16 16 16 15 16 16 16 17 17 17 17 17 17 17 17 17 17 17 17 16 15 14 15 16 16 15 14 13 14 14
11 11 12 12 13 14 14 15 15 16 16 16 16 16 15 15 15 16 16 16 17 17 17 17 18 18 18 17 17 18 18 17 17 16 15 15 15 15 15 14 13 13 12
11 11 12 13 13 14 14 15 15 16 16 15 15 15 15 15 16 16 16 16 17 17 17 17 18 18 18 18 18 18 18 18 17 17 16 15 16 16 16 15 14 13 12
10 11 12 13 13 14 15 15 16 16 16 15 15 15 15 15 16 16 16 17 17 17 17 17 18 18 18 18 18 18 18 18 18 18 18 17 18 18 18 17 16 15 15
11 11 12 13 13 14 15 16 16 16 15 15 15 15 15 15 16 16 16 17 17 17 17 17 18 18 18 18 18 18 18 18 18 19 19 19 19 20 20 19 17 17 16
11 11 12 13 14 15 15 16 16 16 15 15 14 15 15 15 16 16 17 17 17 17 17 17 18 18 18 18 18 18 18 18 19 19 20 20 20 20 20 19 18 16 15
11 12 13 14 15 15 16 16 16 15 15 15 15 15 15 16 16 17 17 17 17 17 17 17 18 18 18 18 18 18 19 19 20 20 20 20 20 20 20 19 18 17 16
12 13 14 15 16 16 16 16 15 15 15 15 15 15 16 16 17 17 17 17 17 17 17 17 18 18 18 18 19 19 19 20 20 20 20 20 20 20 20 19 19 18 18
13 14 14 16 16 16 16 16 15 15 15 15 15 15 16 16 17 17 17 18 18 17 17 18 18 18 19 19 19 20 20 20 19 19 19 19 19 20 20 19 19 19 19
13 14 15 16 17 17 16 16 15 15 15 15 15 15 15 16 17 17 18 18 18 18 18 18 19 19 19 19 19 19 19 19 18 18 18 19 20 20 20 19 19 19 18
14 15 16 17 17 17 16 16 15 15 15 14 14 14 15 16 17 17 18 18 18 18 18 18 19 19 19 19 18 18 18 18 17 17 17 18 19 19 19 19 19 18 17
15 15 16 17 17 17 16 16 16 16 16 15 15 15 15 16 17 18 18 18 18 18 18 18 18 17 17 17 17 17 17 17 17 17 18 18 19 19 19 19 19 18 17
15 16 17 17 17 16 16 16 16 16 16 16 16 16 17 17 18 18 18 18 18 18 18 17 17 17 17 17 16 16 16 17 17 17 18 18 19 19 19 19 19 18 17
16 17 17 17 17 16 16 15 15 16 16 16 17 17 17 18 18 18 18 18 18 18 18 17 17 17 17 17 17 16 16 17 18 18 18 19 19 19 19 19 18 18 17
17 17 17 17 17 16 16 15 15 15 15 16 16 17 17 17 18 18 18 18 18 18 18 17 17 18 18 18 18 17 17 18 18 18 19 19 20 20 19 19 18 18 18
18 18 17 17 17 16 16 15 15 15 15 15 16 17 17 17 17 18 18 18 18 18 18 18 18 18 18 18 18 18 18 18 18 19 19 20 20 21 20 19 19 19 19
17 17 17 17 16 16 15 15 15 15 15 15 16 17 17 17 17 18 18 18 18 18 19 19 19 19 19 19 19 18 18 18 19 19 20 20 21 21 21 20 20 20 20
17 17 17 17 16 16 15 15 15 15 15 15 16 17 17 17 17 18 18 19 19 19 20 20 20 20 20 19 19 18 18 18 19 20 20 21 21 21 21 21 20 20 20
17 17 16 16 16 16 15 15 15 15 16 16 16 17 17 18 18 18 19 19 19 20 20 20 20 20 20 20 19 19 19 19 19 20 21 21 21 21 21 21 21 20 20
17 17 16 16 16 15 15 15 15 16 16 16 17 17 17 18 18 18 19 19 19 20 20 21 21 20 20 20 20 20 20 20 20 21 21 21 21 21 21 21 21 20 20
17 17 16 16 16 15 15 15 16 16 16 16 17 17 18 18 18 18 19 19 19 20 20 21 21 21 20 20 21 21 21 21 21 21 22 22 21 21 21 21 20 20 20
17 16 16 16 15 15 15 15 16 16 16 16 17 17 18 18 18 18 19 19 20 20 20 21 21 20 20 21 21 21 21 21 21 21 21 21 21 21 21 21 20 20 20
17 16 16 16 15 15 15 15 15 16 16 16 17 17 18 18 18 19 19 19 19 20 20 20 20 20 20 21 21 21 21 21 21 21 21 21 21 21 21 21 21 20 20